TimeCST,TemperatureF,Dew PointF,Humidity,Sea Level PressureIn,VisibilityMPH,Wind Direction,Wind SpeedMPH,Gust SpeedMPH,PrecipitationIn,Events,Conditions,WindDirDegrees,DateUTC
12:15 AM,26.4,14.7,61,30.23,10.0,South,12.7,-,N/A,,Overcast,190,2013-11-25 06:15:00
12:35 AM,26.8,15.1,61,30.23,10.0,SSW,12.7,-,N/A,,Overcast,200,2013-11-25 06:35:00
12:55 AM,27.0,15.8,63,30.21,10.0,SSW,13.8,-,N/A,,Overcast,200,2013-11-25 06:55:00
1:15 AM,27.1,15.4,61,30.21,10.0,SSW,13.8,-,N/A,,Overcast,210,2013-11-25 07:15:00
1:35 AM,27.3,16.0,62,30.21,10.0,SSW,12.7,-,N/A,,Overcast,210,2013-11-25 07:35:00
1:55 AM,27.3,16.0,62,30.21,10.0,SSW,16.1,-,N/A,,Overcast,210,2013-11-25 07:55:00
2:15 AM,27.3,16.2,63,30.20,10.0,SSW,16.1,-,N/A,,Overcast,210,2013-11-25 08:15:00
2:35 AM,27.3,16.3,63,30.20,10.0,SSW,13.8,-,N/A,,Overcast,210,2013-11-25 08:35:00
2:55 AM,27.5,16.7,64,30.20,10.0,SSW,13.8,-,N/A,,Overcast,210,2013-11-25 08:55:00
3:15 AM,27.3,16.5,64,30.19,10.0,SSW,12.7,-,N/A,,Overcast,210,2013-11-25 09:15:00
3:35 AM,27.3,16.7,64,30.19,10.0,SSW,9.2,-,N/A,,Overcast,210,2013-11-25 09:35:00
3:55 AM,27.3,16.7,64,30.18,10.0,SSW,15.0,-,N/A,,Overcast,200,2013-11-25 09:55:00
4:15 AM,27.5,17.1,65,30.17,10.0,SSW,11.5,-,N/A,,Overcast,200,2013-11-25 10:15:00
4:35 AM,27.5,17.4,66,30.16,10.0,SSW,13.8,-,N/A,,Overcast,200,2013-11-25 10:35:00
4:55 AM,27.5,17.2,65,30.16,10.0,SSW,11.5,-,N/A,,Overcast,210,2013-11-25 10:55:00
5:15 AM,27.5,17.4,66,30.17,10.0,SSW,9.2,-,N/A,,Overcast,210,2013-11-25 11:15:00
5:35 AM,27.5,17.6,66,30.16,10.0,SSW,11.5,-,N/A,,Overcast,210,2013-11-25 11:35:00
5:55 AM,27.5,18.1,68,30.15,10.0,SSW,12.7,-,N/A,,Overcast,200,2013-11-25 11:55:00
6:15 AM,27.9,18.9,69,30.15,10.0,SW,10.4,-,N/A,,Overcast,220,2013-11-25 12:15:00
6:35 AM,28.0,19.4,70,30.15,10.0,SW,11.5,-,N/A,,Overcast,220,2013-11-25 12:35:00
6:55 AM,28.0,19.4,70,30.15,10.0,SW,10.4,-,N/A,,Overcast,220,2013-11-25 12:55:00
7:15 AM,27.5,19.2,71,30.16,10.0,SW,8.1,-,N/A,,Overcast,230,2013-11-25 13:15:00
7:35 AM,26.2,19.0,74,30.16,10.0,SW,9.2,-,N/A,,Scattered Clouds,220,2013-11-25 13:35:00
7:55 AM,27.3,19.6,73,30.16,10.0,SW,8.1,-,N/A,,Mostly Cloudy,220,2013-11-25 13:55:00
8:15 AM,28.6,20.5,72,30.16,10.0,SW,11.5,-,N/A,,Overcast,220,2013-11-25 14:15:00
8:35 AM,29.1,20.5,70,30.16,10.0,SW,12.7,-,N/A,,Overcast,220,2013-11-25 14:35:00
8:55 AM,29.5,20.7,70,30.16,10.0,SW,13.8,-,N/A,,Overcast,230,2013-11-25 14:55:00
9:15 AM,29.7,20.8,70,30.16,10.0,SW,11.5,-,N/A,,Overcast,230,2013-11-25 15:15:00
9:35 AM,30.9,21.7,69,30.16,10.0,WSW,12.7,-,N/A,,Overcast,240,2013-11-25 15:35:00
9:55 AM,31.6,21.7,67,30.17,10.0,SW,15.0,19.6,N/A,,Overcast,230,2013-11-25 15:55:00
10:15 AM,33.1,22.8,66,30.17,10.0,WSW,16.1,-,N/A,,Overcast,240,2013-11-25 16:15:00
10:35 AM,32.7,23.2,68,30.17,10.0,WSW,13.8,20.7,N/A,,Overcast,240,2013-11-25 16:35:00
10:55 AM,33.4,23.5,67,30.17,10.0,West,13.8,-,N/A,,Overcast,260,2013-11-25 16:55:00
11:15 AM,34.0,24.4,68,30.17,10.0,West,10.4,-,N/A,,Overcast,270,2013-11-25 17:15:00
11:35 AM,35.8,25.3,66,30.16,10.0,West,15.0,-,N/A,,Overcast,260,2013-11-25 17:35:00
11:55 AM,35.6,25.3,66,30.15,10.0,West,13.8,-,N/A,,Overcast,260,2013-11-25 17:55:00
12:15 PM,36.9,26.6,66,30.15,10.0,West,11.5,-,N/A,,Mostly Cloudy,260,2013-11-25 18:15:00
12:35 PM,37.0,26.8,66,30.14,10.0,West,12.7,-,N/A,,Mostly Cloudy,260,2013-11-25 18:35:00
12:55 PM,36.9,26.8,67,30.14,10.0,West,11.5,-,N/A,,Scattered Clouds,260,2013-11-25 18:55:00
1:15 PM,36.7,27.1,68,30.14,10.0,West,13.8,17.3,N/A,,Clear,280,2013-11-25 19:15:00
1:35 PM,39.2,27.7,63,30.13,10.0,West,13.8,-,N/A,,Scattered Clouds,280,2013-11-25 19:35:00
1:55 PM,39.4,27.9,63,30.13,10.0,West,12.7,-,N/A,,Scattered Clouds,280,2013-11-25 19:55:00
2:15 PM,40.1,28.0,62,30.12,10.0,West,10.4,-,N/A,,Clear,260,2013-11-25 20:15:00
2:35 PM,40.3,28.2,62,30.12,10.0,WNW,11.5,-,N/A,,Clear,290,2013-11-25 20:35:00
2:55 PM,40.3,28.6,63,30.12,10.0,WNW,6.9,-,N/A,,Clear,290,2013-11-25 20:55:00
3:15 PM,40.5,28.4,62,30.12,10.0,WNW,5.8,-,N/A,,Clear,300,2013-11-25 21:15:00
3:35 PM,40.3,28.8,63,30.13,10.0,WNW,5.8,-,N/A,,Clear,290,2013-11-25 21:35:00
3:55 PM,40.1,29.1,65,30.13,10.0,West,3.5,-,N/A,,Clear,280,2013-11-25 21:55:00
4:15 PM,39.2,29.3,68,30.14,10.0,West,4.6,-,N/A,,Clear,280,2013-11-25 22:15:00
4:35 PM,38.1,29.1,70,30.14,10.0,West,4.6,-,N/A,,Clear,270,2013-11-25 22:35:00
4:55 PM,37.4,28.6,70,30.14,10.0,West,4.6,-,N/A,,Clear,280,2013-11-25 22:55:00
5:15 PM,36.5,28.2,72,30.14,10.0,West,4.6,-,N/A,,Clear,270,2013-11-25 23:15:00
5:35 PM,36.0,28.2,73,30.14,10.0,West,4.6,-,N/A,,Clear,270,2013-11-25 23:35:00
5:55 PM,35.2,28.2,76,30.15,10.0,West,5.8,-,N/A,,Clear,280,2013-11-25 23:55:00
6:15 PM,34.9,27.5,74,30.15,10.0,West,8.1,-,N/A,,Clear,280,2013-11-26 00:15:00
6:35 PM,34.9,27.3,74,30.15,10.0,West,6.9,-,N/A,,Clear,280,2013-11-26 00:35:00
6:55 PM,35.8,27.5,72,30.16,10.0,WNW,6.9,-,N/A,,Clear,290,2013-11-26 00:55:00
7:15 PM,35.2,27.0,72,30.16,10.0,NW,6.9,-,N/A,,Clear,310,2013-11-26 01:15:00
7:35 PM,35.8,26.6,69,30.17,10.0,NW,6.9,-,N/A,,Clear,320,2013-11-26 01:35:00
7:55 PM,35.4,26.8,71,30.17,10.0,NNW,8.1,-,N/A,,Clear,340,2013-11-26 01:55:00
8:15 PM,35.8,26.6,69,30.18,10.0,NNW,8.1,-,N/A,,Clear,340,2013-11-26 02:15:00
8:35 PM,35.8,26.8,70,30.18,10.0,North,8.1,-,N/A,,Clear,350,2013-11-26 02:35:00
8:55 PM,35.2,27.0,72,30.18,10.0,NNW,6.9,-,N/A,,Clear,340,2013-11-26 02:55:00
9:15 PM,35.6,26.6,70,30.19,10.0,NNW,8.1,-,N/A,,Clear,340,2013-11-26 03:15:00
9:35 PM,35.6,26.6,70,30.19,10.0,NNW,6.9,-,N/A,,Clear,340,2013-11-26 03:35:00
9:55 PM,34.9,26.6,72,30.19,10.0,NNW,6.9,-,N/A,,Clear,330,2013-11-26 03:55:00
10:15 PM,34.3,27.0,74,30.19,10.0,NW,6.9,-,N/A,,Clear,320,2013-11-26 04:15:00
10:35 PM,33.8,27.0,76,30.19,10.0,NNW,8.1,-,N/A,,Clear,330,2013-11-26 04:35:00
10:55 PM,32.9,26.6,78,30.19,10.0,NNW,8.1,-,N/A,,Clear,330,2013-11-26 04:55:00
11:15 PM,33.8,26.2,74,30.19,10.0,NNW,8.1,-,N/A,,Clear,330,2013-11-26 05:15:00
11:35 PM,33.4,25.7,73,30.19,10.0,NNW,8.1,-,N/A,,Clear,340,2013-11-26 05:35:00
11:55 PM,32.0,25.5,77,30.19,10.0,NW,6.9,-,N/A,,Clear,320,2013-11-26 05:55:00